Regional Weather Roundup
Issued by NWS

Home | Current Version | Previous Version | Graphics & Text | Print | Product List | Glossary On
Versions: 1 2 3 4 5 6 7 8 9 10 11 12 13 14 15 16 17 18 19 20 21 22 23 24 25 26 27 28 29 30 31 32 33 34 35 36 37 38 39 40 41 42 43 44 45 46 47 48 49 50
000
ASUS45 KPSR 282110
RWRAZ

ARIZONA REGIONAL HOURLY WEATHER ROUNDUP
NATIONAL WEATHER SERVICE PHOENIX AZ
200 PM MST MON JUL 28 2014

NOTE: FAIR INDICATES FEW OR NO CLOUDS BELOW 12,000 FEET WITH NO
SIGNIFICANT WEATHER AND/OR OBSTRUCTIONS TO VISIBILITY.

AZZ001>003-036-282200-
NORTHWEST ARIZONA

CITY           SKY/WX    TMP DP  RH WIND       PRES   REMARKS
BULLHEAD CITY  SUNNY    104  54  18 SW14G20   29.93F HX 102
KINGMAN        PTSUNNY   84  62  47 E10       30.15F
$$

AZZ004>008-015-016-018-282200-
NORTH CENTRAL ARIZONA

CITY           SKY/WX    TMP DP  RH WIND       PRES   REMARKS
GRAND CANYON   CLOUDY    75  53  46 SE15G22   30.39F
WILLIAMS       CLOUDY    64  59  82 CALM      30.47F
PRESCOTT       PTSUNNY   75  56  51 SW9       30.29F
FLAGSTAFF      CLOUDY    71  51  49 W3        30.44F
PAYSON         PTSUNNY   86  50  28 S6G14     30.30F
PAGE           MOSUNNY   91  49  23 CALM      30.18F
$$

AZZ009>014-017-282200-
NORTHEAST ARIZONA

CITY           SKY/WX    TMP DP  RH WIND       PRES   REMARKS
WINSLOW        PTSUNNY   86  51  29 CALM      30.27F
SAINT JOHNS    CLOUDY    81  56  42 VRB5      30.33F
WINDOW ROCK    LGT RAIN  66  59  78 S13G21    30.42R
SHOW LOW       PTSUNNY   73  50  43 SW9       30.41F
$$

AZZ023-282200-
GREATER PHOENIX AREA

CITY           SKY/WX    TMP DP  RH WIND       PRES   REMARKS
PHOENIX        MOSUNNY  102  55  20 VRB5      29.97F HX 100
BUCKEYE          N/A    100  57  23 S5        29.98F
GLENDALE       MOSUNNY  102  55  21 MISG      29.99F HX 101
DEER VALLEY    SUNNY     99  54  22 SE7       30.00F
SCOTTSDALE     SUNNY     99  56  23 VRB7      30.01F
MESA-FALCON    PTSUNNY  102  55  21 N10       29.99F HX 101
MESA-GATEWAY   MOSUNNY  100  55  22 CALM      30.00F
CHANDLER       PTSUNNY  100  57  23 W8        29.99F
$$

AZZ027-028-282200-
SOUTHWEST MARICOPA COUNTY AND PINAL COUNTY

CITY           SKY/WX    TMP DP  RH WIND       PRES   REMARKS
CASA GRANDE    SUNNY    100  61  27 CALM      30.01F HX 101
GILA BEND      PTCLDY   102  57  22 VRB1      29.97F HX 101
$$

AZZ503-504-507>509-282200-
SOUTHEAST ARIZONA

CITY           SKY/WX    TMP DP  RH WIND       PRES   REMARKS
TUCSON         CLOUDY    91  59  33 S3        30.13F
RYAN FIELD       N/A     93  59  31 NE6       30.10F
NOGALES        CLOUDY    84  60  44 CALM      30.23F
SIERRA VISTA   PTSUNNY   82  57  42 VRB7      30.27F
DOUGLAS        PTSUNNY   84  61  45 S7        30.23F
SAFFORD        MOSUNNY   90  56  31 MISG      30.14F
$$

AZZ020-021-025-026-031-282200-
SOUTHWEST ARIZONA

CITY           SKY/WX    TMP DP  RH WIND       PRES   REMARKS
YUMA           MOSUNNY  105  58  21 VRB7      29.91F HX 105
$$

CAZ031-033-041-043-047-048-061-282200-
SOUTHERN CALIFORNIA

CITY           SKY/WX    TMP DP  RH WIND       PRES   REMARKS
DOWNTOWN L.A.  PTSUNNY   87  53  31 SW5       30.03F
L.A. AIRPORT   PTSUNNY   77  62  59 W14       30.05F
SAN DIEGO      MOSUNNY   81  60  48 W8        30.04F
BURBANK        PTSUNNY   90  53  28 S10       30.03F
ONTARIO        PTSUNNY   91  42  18 SW8       30.05F
RIVERSIDE      PTSUNNY   93  34  12 W8        30.04F
PALM SPRINGS   MOSUNNY  103  58  22 SE8       29.94F HX 102
EL CENTRO NAS  MOSUNNY  105  58  21 VRB5      29.88F HX 105
IMPERIAL       SUNNY    106  61  23 E8        29.88F HX 107
BLYTHE           N/A    N/A N/A N/A MISG      29.92F
NEEDLES        MOSUNNY  106  53  17 SW13G18   29.94F HX 104
$$

NVZ020-UTZ003-282200-
SOUTHERN NEVADA-UTAH

CITY           SKY/WX    TMP DP  RH WIND       PRES   REMARKS
LAS VEGAS      MOSUNNY   94  57  28 VRB3      30.02F
SALT LAKE CITY CLOUDY    90  49  24 NW17      30.14S
$$

NMZ009-TXZ055-282200-
NEW MEXICO-WEST TEXAS

CITY           SKY/WX    TMP DP  RH WIND       PRES   REMARKS
ALBUQUERQUE    MOSUNNY   85  51  31 S12       30.32F
EL PASO        MOSUNNY   91  57  31 E9        30.19F
$$


........................KEY........................
SKY/WX - SKY CONDITION/WEATHER
TMP    - TEMPERATURE IN FAHRENHEIT
DP     - DEW POINT IN FAHRENHEIT
RH     - RELATIVE HUMIDITY IN PERCENT
WIND   - DIRECTION AND SPEED IN MILES PER HOUR (MPH)
VRB    - VARIABLE WIND DIRECTION
PRES   - MEAN SEA LEVEL PRESSURE IN INCHES OF MERCURY
         F - FALLING PRESSURE   R - RISING PRESSURE
         S - STEADY PRESSURE
VSB    - VISIBILITY IN MILES
HX     - HEAT INDEX IN FAHRENHEIT
WCI    - WIND CHILL INDEX IN FAHRENHEIT
TC     - TEMPERATURE IN CELSIUS WHICH IS ALSO KNOWN AS
         TEMPERATURE IN CENTIGRADE
AFB    - AIR FORCE BASE
         LUKE AFB IS LUKE AIR FORCE BASE
         DAVIS-MONTHAN IS DAVIS-MONTHAN AIR FORCE BASE
NAS    - NAVAL AIR STATION
         EL CENTRO NAS IS EL CENTRO NAVAL AIR STATION
N/A    - NOT AVAILABLE


USA.gov is the U.S. government's official web portal to all federal, state and local government web resources and services.